Location: Mount Cross
(36.6390°N, 79.4878°W)
Time: 09:29:39
(UTC+00:00)

Vanguard 1 Rocket - Pass Details

Date: 08 April 2023
Orbit: 654 x 4221 km, 34.3° (Epoch: 01 June)

Event Time Altitude Azimuth Distance (km) Brightness Sun altitude
Rises 06:30:21 0° 287° (WNW) 8,315 12.2 -43.2°
Reaches altitude 10° 06:36:50 10° 283° (WNW) 7,005 11.7 -42.7°
Enters shadow 06:46:23 28° 271° (W) 4,969 10.8 -41.8°
Maximum altitude 06:56:39 48° 218° (SW) 3,226 - -40.7°
Drops below altitude 10° 07:07:38 10° 148° (SSE) 4,037 - -39.5°
Sets 07:10:17 0° 142° (SE) 4,675 - -39.2°
